Lapse_Rate
5.2 5.3 5.3 5.4 5.4 5.5 5.5 5.6 5.5 5.6 5.8 5.9 6.0 6.1 6.1 6.1 6.2 6.2 6.1 6.3 6.4 6.3 6.4 6.3 6.3 6.2 6.0 5.7 5.2 5.1 5.3 4.9 4.8 5.0 5.3 5.2 5.2 5.3 5.2 5.5 5.8 5.9 6.1 5.8 5.9
4.8 4.9 5.0 5.2 5.3 5.4 5.5 5.5 5.6 5.6 5.6 5.8 5.9 6.1 6.3 6.3 6.2 6.2 6.3 6.3 6.5 6.5 6.5 6.4 6.3 6.3 6.1 5.9 5.5 5.4 5.3 5.0 5.0 5.1 5.4 5.6 5.3 5.4 5.5 5.8 6.0 6.2 6.2 5.9 5.7
4.9 4.9 4.9 4.9 5.0 5.0 5.3 5.5 5.5 5.6 5.7 5.8 5.8 5.9 6.1 6.5 6.4 6.2 6.2 6.3 6.4 6.4 6.2 6.1 6.1 6.2 6.1 6.0 5.6 5.3 5.3 5.2 5.2 5.5 5.2 5.2 5.4 5.6 5.9 5.7 6.0 6.1 6.2 6.3 6.1
4.8 4.8 4.8 4.9 5.0 4.9 5.1 5.2 5.3 5.5 5.7 5.8 5.9 5.7 5.8 6.2 6.3 6.4 6.4 6.3 6.3 6.4 6.4 6.4 6.3 6.3 6.2 6.0 5.9 5.4 5.4 5.4 5.4 5.5 5.3 5.3 5.3 5.5 5.4 5.6 5.9 6.0 5.5 6.3 6.1
4.8 4.9 5.0 5.0 5.0 5.1 5.1 5.2 5.2 5.4 5.6 5.8 6.0 6.0 5.7 5.8 6.2 6.3 6.4 6.4 6.3 6.5 6.5 6.7 6.6 6.6 6.5 6.1 6.1 5.6 5.4 5.6 5.7 6.0 6.0 5.5 5.4 5.2 5.6 5.6 5.9 5.9 5.8 5.9 5.8
4.9 5.1 5.3 5.4 5.4 5.2 5.2 5.3 5.3 5.3 5.6 5.8 6.1 6.1 6.0 5.7 5.9 6.1 6.3 6.4 6.3 6.3 6.4 6.3 6.4 6.4 6.2 6.3 6.1 5.8 5.9 6.0 6.1 6.2 6.4 5.7 5.6 5.4 5.7 5.4 5.6 5.5 5.8 5.8 5.9
5.1 5.2 5.4 5.4 5.4 4.9 5.1 5.5 5.5 5.3 5.5 5.8 6.1 6.3 6.0 5.9 5.8 5.9 6.0 6.1 6.2 6.1 6.1 6.1 6.1 6.1 6.3 5.8 5.9 6.0 6.2 6.3 6.5 6.7 6.5 6.3 5.9 5.8 5.7 5.4 5.5 5.4 5.2 5.4 5.7
5.4 5.2 5.4 5.5 5.4 5.0 5.3 5.3 5.3 5.4 5.4 5.6 6.1 6.3 6.1 6.1 5.9 5.7 5.7 5.9 6.1 6.1 5.9 5.7 5.9 5.9 5.8 5.7 5.7 6.0 6.4 6.6 6.6 6.5 6.3 6.2 6.1 5.9 5.5 5.3 5.3 5.4 5.3 5.5 5.7
5.6 5.5 5.6 5.5 5.5 5.3 5.6 5.5 5.6 5.4 5.5 5.6 5.9 6.2 6.2 6.2 6.0 5.7 5.5 5.6 5.9 6.1 6.1 5.8 5.7 5.7 5.5 5.5 5.7 6.1 6.7 6.9 6.9 6.7 6.6 6.4 6.2 6.0 5.3 5.2 5.2 5.3 5.7 5.3 5.4
5.7 5.8 6.0 6.2 5.8 5.7 5.9 5.7 5.6 5.6 5.6 5.9 6.3 6.1 6.2 6.1 5.7 5.6 5.8 5.6 5.7 6.0 6.1 5.9 5.7 5.8 5.6 5.6 6.2 6.3 6.7 6.9 6.9 6.8 7.0 6.6 6.4 6.0 5.6 5.7 5.8 5.8 5.6 5.4 5.4
6.0 6.2 6.3 6.2 6.2 6.3 6.2 6.3 6.3 6.1 6.1 6.2 6.5 6.6 6.6 6.1 5.7 5.7 5.7 6.1 5.5 5.7 6.2 6.1 6.1 6.1 5.4 5.8 6.1 6.4 6.7 7.0 7.0 6.7 6.9 6.9 6.9 6.3 5.8 5.8 6.0 5.9 5.7 5.6 5.5
6.1 6.1 6.1 6.4 6.6 6.6 6.5 6.4 6.3 6.4 6.6 6.7 6.7 6.5 6.7 6.2 5.8 5.6 5.6 5.7 5.8 5.9 6.0 6.1 6.3 6.6 5.8 5.8 6.1 6.3 6.6 6.9 7.0 6.9 7.1 7.3 7.3 6.8 6.3 5.8 5.9 5.7 5.8 5.6 5.3
6.1 6.6 6.8 6.9 6.8 6.7 6.4 6.2 6.2 6.3 6.5 7.0 7.3 6.6 6.7 6.7 6.3 6.0 5.7 5.7 6.0 5.8 6.0 6.2 6.5 6.1 5.7 5.8 6.0 6.3 6.5 6.9 6.8 6.9 7.1 7.4 7.3 7.1 6.7 6.3 6.2 6.1 6.0 5.8 5.7
6.9 6.9 7.0 7.0 6.8 6.5 6.3 6.4 6.5 6.9 7.1 7.5 7.8 7.2 7.1 7.0 6.6 6.2 5.8 6.0 5.7 5.7 5.9 5.9 6.1 6.1 5.8 5.9 6.1 6.3 6.4 6.6 6.7 6.7 7.2 7.5 7.4 6.9 6.8 6.4 6.4 6.4 6.4 6.5 6.0
6.9 7.0 7.0 6.9 6.7 6.4 6.6 7.0 7.5 7.4 8.1 8.0 7.9 7.6 7.4 7.3 7.1 6.4 6.0 5.9 6.0 6.0 5.9 6.0 6.0 5.9 5.9 6.1 6.2 6.4 6.7 6.7 6.4 6.4 6.6 7.3 7.6 7.1 6.9 6.8 6.7 6.7 6.7 6.7 6.6
7.0 7.0 6.9 6.9 6.6 6.9 7.1 7.1 7.6 7.5 8.1 7.9 7.8 8.0 7.8 7.4 7.3 6.8 6.3 6.2 6.1 6.1 6.2 6.3 6.2 6.2 6.4 6.5 6.6 6.6 6.7 6.8 6.8 6.3 7.3 7.2 7.5 6.4 6.2 6.5 6.5 6.4 6.3 6.3 6.6
7.0 7.0 7.1 6.9 7.0 7.6 7.7 7.6 7.5 7.7 7.8 7.8 8.0 8.6 8.4 7.8 7.5 7.1 6.8 6.5 6.4 6.3 6.3 6.4 6.4 6.4 6.7 6.7 6.7 6.6 6.7 7.2 7.5 7.3 7.9 7.2 7.4 6.1 6.3 6.9 7.1 7.4 7.4 6.6 6.2
6.8 7.1 6.9 7.1 7.3 8.1 8.0 7.6 7.5 7.4 7.5 7.9 8.6 9.0 8.7 8.3 8.0 7.3 7.0 6.9 6.7 6.6 6.5 6.6 6.6 6.6 6.8 6.8 6.9 6.9 7.0 7.7 7.3 7.3 7.6 6.7 7.3 5.9 6.4 7.1 7.3 8.0 7.8 7.1 6.1
6.8 7.0 7.1 7.3 7.7 8.4 8.5 8.4 7.5 7.3 8.1 8.2 9.0 8.8 8.6 8.4 8.0 7.5 7.2 6.7 6.6 6.8 6.9 6.6 6.1 6.3 6.7 7.0 7.2 7.2 6.8 7.3 7.1 6.7 8.0 7.0 6.7 6.8 6.6 7.2 7.6 7.9 7.9 7.7 7.3
6.9 7.0 7.2 7.4 7.7 8.5 8.8 8.0 8.0 7.7 8.3 8.7 9.1 9.0 8.7 8.3 7.9 7.5 7.1 6.6 6.7 7.0 7.0 6.8 6.3 6.1 6.6 7.1 7.2 7.2 7.4 7.4 7.3 7.5 8.0 6.5 6.2 6.0 7.0 7.4 7.3 7.6 7.8 7.7 7.8
6.9 7.0 7.2 7.5 7.5 8.1 8.5 7.8 7.6 7.8 8.1 8.4 8.9 9.0 8.8 8.4 8.0 7.6 7.2 7.1 7.0 7.2 7.3 7.1 6.9 6.5 6.7 6.8 6.9 6.9 7.0 7.4 7.6 7.3 8.2 7.5 6.2 5.6 6.1 6.9 7.4 7.7 7.5 7.7 7.6
7.2 7.2 7.3 7.3 7.4 7.8 7.8 7.8 7.7 7.9 8.0 8.3 8.4 8.4 8.5 8.7 8.5 8.4 7.7 7.7 7.7 7.8 7.7 7.6 7.2 6.8 6.3 6.5 6.6 6.8 7.3 7.3 7.8 6.8 6.7 7.0 5.6 5.8 5.7 6.1 6.7 7.2 7.5 7.7 7.8
7.5 7.5 7.4 7.3 7.3 7.3 7.2 7.3 7.3 7.8 8.2 8.1 8.2 8.3 8.2 8.5 8.2 8.1 8.0 8.3 8.2 8.2 8.1 7.9 7.5 6.4 6.4 6.5 6.6 6.5 6.7 6.9 7.2 7.3 6.4 7.9 5.6 5.5 5.5 5.9 6.3 6.8 7.3 7.4 7.5
7.7 7.6 7.3 7.1 6.8 6.6 6.7 6.8 7.0 7.2 7.3 7.5 7.7 7.7 8.1 7.9 7.9 7.8 7.8 7.9 8.1 8.4 8.2 7.9 7.6 7.1 7.6 6.9 6.7 6.5 6.5 6.4 6.4 6.5 5.8 5.8 5.7 5.5 5.4 5.7 6.2 6.5 6.8 7.0 7.2
7.5 7.4 7.4 7.1 7.0 6.6 6.4 6.2 6.5 6.4 6.3 6.6 6.8 7.3 7.5 7.5 7.7 7.6 7.7 7.7 7.7 8.3 8.1 7.7 7.1 6.9 6.8 6.6 6.7 6.7 6.3 6.1 5.9 5.8 5.9 5.6 5.2 5.7 5.8 6.0 6.0 6.4 6.6 6.7 6.5
7.5 7.3 7.3 7.3 7.2 7.1 6.9 6.8 6.4 6.2 6.3 6.3 6.6 6.7 7.0 7.2 7.4 7.4 7.5 7.3 7.3 7.7 7.4 7.3 6.6 6.2 6.1 6.0 5.7 5.9 6.2 6.2 5.9 5.7 5.5 5.7 5.9 6.0 5.9 5.9 6.0 5.5 5.6 5.9 6.3
7.3 7.0 7.2 7.3 7.3 7.3 7.2 7.2 6.9 6.7 6.3 6.3 6.3 6.4 6.3 6.3 6.3 6.4 6.6 6.7 6.7 6.8 7.0 7.0 6.5 5.9 5.5 5.8 5.7 5.9 6.2 6.3 6.3 6.2 5.7 5.8 5.8 6.3 6.3 6.1 5.8 5.7 5.5 5.3 5.5
Wind_Speed
17 17 17 18 18 18 18 17 16 15 14 12 11 10 8 4 4 2 6 7 7 17 13 13 8 11 6 5 2 3 2 2 6 1 4 13 7 1 5 10 4 7 8 17 21
18 18 18 18 18 18 18 17 16 15 14 13 11 9 6 3 2 9 8 10 9 21 17 16 13 14 5 5 3 2 2 2 5 4 10 10 7 9 6 8 7 12 17 22 19
18 18 19 19 19 18 18 18 17 16 14 12 10 7 4 2 4 5 13 16 15 17 14 10 14 9 5 4 3 2 2 2 5 5 14 16 12 6 11 6 8 20 25 23 22
18 18 19 19 20 20 19 18 18 16 14 11 8 5 2 2 1 3 16 18 18 16 17 13 12 10 6 5 4 3 6 6 1 7 10 13 13 8 2 4 11 20 23 22 21
20 20 20 20 21 21 21 20 18 16 13 10 5 2 2 3 6 3 19 21 16 16 16 13 17 8 8 6 4 7 6 4 6 10 6 13 9 9 6 12 18 21 20 21 19
19 21 21 21 21 21 21 21 21 18 13 8 4 4 2 3 3 12 16 17 14 11 13 15 11 5 7 4 4 2 8 9 2 9 10 11 9 9 8 16 18 20 19 18 19
20 21 21 21 21 22 23 23 23 20 13 5 5 3 1 4 3 14 13 12 11 7 11 6 9 5 4 3 2 5 6 3 8 10 5 11 11 8 18 17 20 20 17 17 16
21 21 22 21 21 22 23 24 24 17 10 8 7 2 4 3 7 12 10 7 8 6 5 2 4 4 1 3 1 3 1 2 3 8 5 4 4 8 19 18 17 17 17 17 18
22 23 22 22 21 21 22 23 12 8 10 13 7 3 2 4 5 12 6 11 11 4 5 5 3 3 2 2 4 1 5 4 4 4 6 4 5 8 13 17 16 16 18 18 18
22 23 23 22 21 19 20 18 5 6 6 4 1 2 3 3 6 11 3 15 5 10 6 7 3 6 3 5 9 7 5 4 5 8 5 8 4 9 11 12 17 18 18 18 18
23 23 24 23 20 17 11 2 2 3 4 5 2 1 1 4 8 10 8 9 8 13 8 9 9 14 13 8 2 5 6 4 3 5 3 4 4 9 12 12 14 17 18 18 19
23 23 22 22 21 16 4 3 4 2 6 10 8 7 6 2 4 13 14 7 12 16 11 9 15 12 9 6 4 5 4 3 2 4 3 2 2 6 10 11 14 17 19 19 18
24 23 22 21 21 2 3 1 2 1 4 3 5 5 4 9 8 15 18 9 15 12 13 14 7 13 10 8 9 5 5 3 2 1 3 4 4 5 6 7 9 17 17 19 19
24 21 20 21 2 1 2 1 7 6 3 2 6 5 6 6 5 10 19 12 6 14 11 9 6 16 11 10 9 10 7 4 3 2 1 2 2 2 8 12 11 14 20 18 21
23 20 16 7 4 1 3 9 4 3 2 2 4 2 4 6 15 9 12 5 12 11 5 6 12 16 13 11 8 5 4 5 2 4 3 4 2 5 4 8 11 12 16 21 21
22 19 12 2 1 4 9 4 3 2 1 2 3 7 8 4 3 10 9 4 3 10 4 4 3 7 7 9 12 9 6 4 4 3 5 5 3 8 5 7 8 12 17 20 23
23 19 4 1 3 5 7 1 2 3 6 7 3 4 9 4 6 12 3 4 4 11 13 4 3 2 2 8 7 7 9 5 6 5 5 2 3 7 9 11 11 14 13 21 21
25 11 7 4 6 5 1 2 6 7 5 5 4 5 5 3 6 5 5 4 9 3 6 10 6 3 6 2 6 14 11 6 10 8 7 2 8 7 11 13 14 18 15 9 19
20 1 2 7 3 2 2 6 2 4 8 8 5 6 4 5 6 7 8 5 7 6 3 6 5 3 7 6 2 6 8 2 5 1 8 4 3 6 16 19 21 20 18 13 6
2 1 4 12 3 1 4 6 2 8 7 3 2 4 4 4 5 5 6 5 5 9 2 3 6 7 5 2 10 2 4 6 3 9 9 4 3 4 17 19 18 20 18 16 8
1 1 5 11 3 6 4 4 3 10 8 7 5 4 6 4 7 4 5 3 7 6 6 2 0 3 1 7 7 1 3 3 2 2 6 7 4 6 8 11 14 17 17 17 16
2 2 7 6 3 2 4 4 7 11 10 8 5 8 6 7 7 5 4 6 13 4 4 4 5 5 4 1 4 7 3 1 7 5 2 1 5 5 8 10 12 14 16 17 18
2 2 4 4 3 3 3 3 9 12 10 8 8 9 7 4 5 5 4 6 12 7 3 1 3 6 3 3 1 4 5 3 2 0 2 5 5 5 8 12 12 14 16 16 18
2 2 4 5 3 3 3 5 3 10 8 7 6 4 3 7 8 4 3 6 8 9 12 3 4 3 2 4 2 3 4 5 3 3 7 3 11 6 9 11 13 14 15 16 16
4 3 2 4 6 7 3 3 5 6 6 12 7 11 3 4 4 5 3 3 8 13 5 4 5 6 9 6 3 1 1 3 4 4 2 9 8 5 5 7 9 11 13 15 17
2 2 2 2 1 5 6 4 7 4 6 6 8 12 11 6 5 3 2 3 3 6 4 3 5 5 3 4 3 4 5 4 1 4 3 3 6 3 3 4 8 11 12 14 15
1 2 1 3 2 2 2 2 3 3 7 7 5 8 12 7 5 6 7 5 5 4 4 3 6 3 4 2 0 5 6 6 2 3 4 5 5 5 4 4 7 9 11 13 14
Wind_Direction
349 348 346 343 341 340 340 340 341 339 337 334 333 326 317 302 285 206 234 218 179 165 154 138 122 140 146 169 212 253 280 329 29 188 107 130 111 237 276 145 150 172 141 138 148
348 346 343 340 338 336 335 335 336 336 335 332 332 328 314 301 262 244 240 200 177 155 150 154 143 149 155 182 210 236 278 352 8 108 131 114 134 159 167 130 84 108 122 137 146
345 343 340 337 334 332 331 330 330 331 333 330 331 332 307 272 266 237 197 186 175 160 150 147 142 145 150 179 180 211 239 29 35 93 145 141 155 195 154 175 177 154 144 148 151
342 340 336 333 331 329 327 326 325 326 328 327 327 329 301 248 209 8 159 164 166 157 142 145 158 159 166 185 190 268 248 273 239 145 147 151 153 144 144 74 142 151 146 152 157
339 335 334 332 330 328 324 322 320 318 319 319 311 332 255 230 260 72 145 145 142 158 158 158 165 159 175 191 182 237 272 260 238 178 140 138 164 125 116 132 138 144 148 158 161
335 332 331 330 330 326 322 320 316 310 305 303 275 137 253 241 3 147 147 147 149 153 152 159 178 163 163 183 216 294 275 301 291 193 155 156 144 135 160 145 147 157 159 166 169
333 329 327 329 328 325 323 320 312 303 286 263 218 181 231 233 6 143 144 157 156 139 159 162 181 187 158 182 285 284 287 88 53 147 157 154 155 196 152 154 157 167 167 170 176
328 327 328 329 328 326 324 320 312 292 249 182 170 219 245 327 146 147 141 112 140 89 148 134 148 159 260 323 205 240 258 184 90 161 154 202 129 137 161 164 165 169 179 178 185
327 327 329 328 330 327 325 319 347 91 148 151 135 252 236 103 169 165 179 150 156 135 87 175 156 193 213 225 170 170 159 115 129 187 161 205 112 137 170 180 166 180 188 187 191
324 324 327 330 328 327 320 305 293 93 118 168 133 206 213 201 157 160 111 151 143 153 118 151 165 196 184 203 191 161 146 111 120 178 183 191 182 157 178 176 180 192 188 192 195
321 326 330 328 327 325 316 174 195 165 224 215 199 304 182 73 133 167 151 134 127 163 163 167 183 196 187 205 57 124 131 127 88 140 220 236 248 187 174 175 186 192 190 193 196
323 330 328 328 329 324 186 214 103 37 294 235 233 271 267 197 121 158 168 146 162 166 150 155 207 188 189 203 199 157 150 150 69 57 241 299 145 184 182 186 187 184 191 196 200
327 332 331 331 327 146 249 247 63 223 246 256 186 216 212 172 151 165 180 150 171 177 183 179 184 168 182 179 192 183 199 175 101 16 100 141 138 162 185 169 180 194 190 195 201
330 331 332 331 268 282 233 141 313 189 290 215 185 231 159 172 116 157 185 152 168 186 180 194 146 174 188 191 198 211 199 201 193 286 181 307 89 166 182 194 198 188 203 198 201
331 328 329 319 311 231 17 335 131 213 258 13 141 83 164 169 132 167 187 191 167 162 198 159 162 181 191 197 186 207 158 192 175 199 227 170 233 91 161 213 228 219 207 211 203
330 326 324 176 220 263 316 323 194 256 58 30 119 169 153 126 103 142 177 51 106 151 225 120 145 179 198 176 185 147 113 93 105 174 203 148 263 56 35 348 326 238 214 210 207
328 319 251 191 313 331 315 181 197 308 330 6 14 179 136 83 91 157 96 81 158 166 178 152 86 66 29 144 165 167 178 150 179 197 184 124 181 61 33 20 355 336 254 211 207
326 313 200 238 289 314 203 155 49 342 352 351 343 79 96 64 51 58 96 93 43 40 163 179 170 12 1 18 186 193 200 195 179 187 158 178 160 113 44 26 18 20 14 211 205
326 225 279 333 239 182 107 63 1 337 322 311 309 111 85 57 112 87 55 44 27 357 186 151 114 349 44 30 295 153 201 46 105 71 186 136 128 183 16 18 16 18 16 12 249
338 351 347 346 188 112 52 102 36 12 321 278 68 14 104 57 92 89 38 21 357 24 282 119 128 19 10 294 50 358 110 175 214 168 184 117 104 28 1 4 4 8 12 1 326
326 9 358 357 269 54 73 44 15 2 12 23 30 72 69 81 70 76 24 84 2 345 46 65 15 50 42 33 15 73 125 62 104 332 182 162 128 21 22 13 4 5 9 15 20
56 33 353 338 46 35 53 23 354 355 14 49 57 55 51 40 60 81 93 9 343 329 46 27 86 75 100 343 325 47 64 8 218 182 55 333 114 29 50 41 19 20 17 22 36
58 342 348 326 85 80 80 80 40 18 27 20 35 44 46 57 100 64 72 5 12 43 41 31 51 124 155 200 161 50 40 63 78 27 151 196 129 72 59 48 40 29 27 28 32
78 38 15 44 26 50 49 30 72 41 50 58 35 55 72 51 40 109 75 17 6 26 37 80 70 359 158 74 69 109 46 43 15 205 146 70 137 74 50 43 34 32 31 32 32
27 70 7 17 41 65 79 31 32 23 30 21 47 41 40 88 78 79 49 17 40 3 46 51 88 83 78 83 74 108 350 19 51 102 297 131 123 91 54 45 40 38 38 34 28
82 129 70 69 9 56 27 44 62 52 22 37 80 47 64 82 39 112 118 44 32 0 57 21 121 121 70 15 1 268 268 275 183 146 146 146 120 119 76 57 50 35 31 31 23
83 102 118 353 44 84 45 84 74 123 63 62 116 82 57 54 60 63 65 69 61 26 45 50 136 149 144 356 286 253 233 215 149 149 155 185 104 145 115 65 41 40 37 25 14